This is the latest recevied weather packets stored in our database for station/object OK1CBR-13. If no packets are shown the sender has not sent any weather packets the latest 10 day(s).
| Time | Temp. | Humidity | Pressure | Rain* | Wind** | Luminosity | Snow |
|---|---|---|---|---|---|---|---|
| 1777462651 | 14.44° C | 26% | 1026.9 hPa | - | - | - | - |
| 1777462051 | 15° C | 28% | 1026.9 hPa | - | - | - | - |
| 1777461451 | 14.44° C | 29% | 1027 hPa | - | - | - | - |
| 1777460851 | 14.44° C | 30% | 1026.9 hPa | - | - | - | - |
| 1777460251 | 14.44° C | 30% | 1026.9 hPa | - | - | - | - |
| 1777459651 | 15° C | 31% | 1026.9 hPa | - | - | - | - |
| 1777459051 | 14.44° C | 31% | 1027 hPa | - | - | - | - |
| 1777458451 | 14.44° C | 32% | 1027 hPa | - | - | - | - |
| 1777457851 | 14.44° C | 32% | 1027 hPa | - | - | - | - |
| 1777457251 | 14.44° C | 32% | 1026.9 hPa | - | - | - | - |
| 1777456651 | 13.89° C | 32% | 1027 hPa | - | - | - | - |
| 1777456051 | 13.33° C | 32% | 1027.2 hPa | - | - | - | - |
| 1777455451 | 13.33° C | 34% | 1027.1 hPa | - | - | - | - |
| 1777454851 | 12.78° C | 34% | 1027.2 hPa | - | - | - | - |
| 1777454251 | 12.22° C | 33% | 1027.2 hPa | - | - | - | - |
| 1777453651 | 12.22° C | 34% | 1027.2 hPa | - | - | - | - |
| 1777453051 | 12.22° C | 36% | 1027.3 hPa | - | - | - | - |
| 1777452451 | 12.22° C | 36% | 1027.4 hPa | - | - | - | - |
| 1777451851 | 11.67° C | 36% | 1027.4 hPa | - | - | - | - |
| 1777451251 | 11.67° C | 37% | 1027.3 hPa | - | - | - | - |
| 1777450651 | 11.11° C | 38% | 1027.2 hPa | - | - | - | - |
| 1777450051 | 11.11° C | 37% | 1027.2 hPa | - | - | - | - |
| 1777449452 | 10.56° C | 39% | 1027.2 hPa | - | - | - | - |
| 1777448852 | 10° C | 39% | 1027.1 hPa | - | - | - | - |
| 1777448252 | 10° C | 38% | 1027.1 hPa | - | - | - | - |
* Rain since midnight (hover to see other rain measurements)
** Current wind speed in m/s (hover to see current wind gust speed)